Time,TemperatureF,DewpointF,PressureIn,WindDirection,WindDirectionDegrees,WindSpeedMPH,WindSpeedGustMPH,Humidity,HourlyPrecipIn,Conditions,Clouds,dailyrainin,SolarRadiationWatts/m^2,SoftwareType,DateUTC
2013-04-17 00:03:00,54.0,51.0,-100.00,NNW,337,5.0,10.0,91,0.00,,,0.01,0.000000,,2013-04-17 04:03:00,
2013-04-17 00:33:00,54.0,51.0,-100.00,NNW,337,5.0,10.0,91,0.00,,,0.01,0.000000,,2013-04-17 04:33:00,
2013-04-17 00:43:00,54.0,51.0,-100.00,NNW,337,5.0,10.0,91,0.00,,,0.01,0.000000,,2013-04-17 04:43:00,
2013-04-17 00:53:00,54.0,51.0,-100.00,NNW,337,5.0,10.0,91,0.00,,,0.01,0.000000,,2013-04-17 04:53:00,
2013-04-17 01:22:00,53.0,52.0,-100.00,NW,324,8.0,10.0,95,0.00,,,0.01,0.000000,,2013-04-17 05:22:00,
2013-04-17 01:32:00,53.0,52.0,-100.00,NW,324,8.0,10.0,95,0.00,,,0.01,0.000000,,2013-04-17 05:32:00,
2013-04-17 01:43:00,53.0,52.0,-100.00,NW,324,8.0,10.0,95,0.00,,,0.01,0.000000,,2013-04-17 05:43:00,
2013-04-17 01:52:00,53.0,52.0,-100.00,NW,324,8.0,10.0,95,0.00,,,0.01,0.000000,,2013-04-17 05:52:00,
2013-04-17 02:02:00,53.0,52.0,-100.00,NW,324,8.0,10.0,95,0.00,,,0.01,0.000000,,2013-04-17 06:02:00,
2013-04-17 02:32:00,53.0,51.0,-100.00,NNW,336,7.0,11.0,94,0.00,,,0.01,0.000000,,2013-04-17 06:32:00,
2013-04-17 02:42:00,53.0,51.0,-100.00,NNW,336,7.0,11.0,94,0.00,,,0.01,0.000000,,2013-04-17 06:42:00,
2013-04-17 02:52:00,53.0,51.0,-100.00,NNW,336,7.0,11.0,94,0.00,,,0.01,0.000000,,2013-04-17 06:52:00,
2013-04-17 03:02:00,53.0,51.0,-100.00,NNW,336,7.0,11.0,94,0.00,,,0.01,0.000000,,2013-04-17 07:02:00,
2013-04-17 03:32:00,52.0,51.0,-100.00,North,355,5.0,9.0,96,0.00,,,0.01,0.000000,,2013-04-17 07:32:00,
2013-04-17 03:42:00,52.0,51.0,-100.00,North,355,5.0,9.0,96,0.00,,,0.01,0.000000,,2013-04-17 07:42:00,
2013-04-17 03:52:00,52.0,51.0,-100.00,North,355,5.0,9.0,96,0.00,,,0.01,0.000000,,2013-04-17 07:52:00,
2013-04-17 04:02:00,52.0,51.0,-100.00,North,355,5.0,9.0,96,0.00,,,0.01,0.000000,,2013-04-17 08:02:00,
2013-04-17 04:22:00,53.0,52.0,-100.00,NNW,348,6.0,13.0,97,0.00,,,0.01,0.000000,,2013-04-17 08:22:00,
2013-04-17 04:33:00,53.0,52.0,-100.00,NNW,348,6.0,13.0,97,0.00,,,0.01,0.000000,,2013-04-17 08:33:00,
2013-04-17 04:42:00,53.0,52.0,-100.00,NNW,348,6.0,13.0,97,0.00,,,0.01,0.000000,,2013-04-17 08:42:00,
2013-04-17 04:52:00,53.0,52.0,-100.00,NNW,348,6.0,13.0,97,0.00,,,0.01,0.000000,,2013-04-17 08:52:00,
2013-04-17 05:02:00,53.0,52.0,-100.00,NNW,348,6.0,13.0,97,0.00,,,0.01,0.000000,,2013-04-17 09:02:00,
2013-04-17 05:03:00,53.0,52.0,-100.00,NNW,344,5.0,12.0,96,0.00,,,0.01,0.000000,,2013-04-17 09:03:00,
2013-04-17 05:33:00,53.0,52.0,-100.00,NNW,344,5.0,12.0,96,0.00,,,0.01,0.000000,,2013-04-17 09:33:00,
2013-04-17 05:42:00,53.0,52.0,-100.00,NNW,344,5.0,12.0,96,0.00,,,0.01,0.000000,,2013-04-17 09:42:00,
2013-04-17 05:53:00,53.0,52.0,-100.00,NNW,344,5.0,12.0,96,0.00,,,0.01,0.000000,,2013-04-17 09:53:00,
2013-04-17 06:33:00,53.0,52.0,-100.00,NNW,331,7.0,10.0,97,0.00,,,0.01,0.000000,,2013-04-17 10:33:00,
2013-04-17 06:43:00,53.0,52.0,-100.00,NNW,331,7.0,10.0,97,0.00,,,0.01,0.000000,,2013-04-17 10:43:00,
2013-04-17 06:53:00,53.0,52.0,-100.00,NNW,331,7.0,10.0,97,0.00,,,0.01,0.000000,,2013-04-17 10:53:00,
2013-04-17 07:02:00,53.0,52.0,-100.00,NNW,331,7.0,10.0,97,0.00,,,0.01,0.000000,,2013-04-17 11:02:00,
2013-04-17 07:03:00,53.0,52.0,-100.00,SW,223,4.0,10.0,96,0.00,,,0.01,0.000000,,2013-04-17 11:03:00,
2013-04-17 07:22:00,53.0,52.0,-100.00,SW,223,4.0,10.0,96,0.00,,,0.01,0.000000,,2013-04-17 11:22:00,
2013-04-17 07:32:00,53.0,52.0,-100.00,SW,223,4.0,10.0,96,0.00,,,0.01,0.000000,,2013-04-17 11:32:00,
2013-04-17 07:42:00,53.0,52.0,-100.00,SW,223,4.0,10.0,96,0.00,,,0.01,0.000000,,2013-04-17 11:42:00,
2013-04-17 07:52:00,53.0,52.0,-100.00,SW,223,4.0,10.0,96,0.00,,,0.01,0.000000,,2013-04-17 11:52:00,
2013-04-17 08:32:00,53.0,53.0,-100.00,SSW,213,6.0,22.0,99,0.00,,,0.01,16.000000,,2013-04-17 12:32:00,
2013-04-17 08:42:00,53.0,53.0,-100.00,SSW,213,6.0,22.0,99,0.00,,,0.01,16.000000,,2013-04-17 12:42:00,
2013-04-17 08:52:00,53.0,53.0,-100.00,SSW,213,6.0,22.0,99,0.00,,,0.01,16.000000,,2013-04-17 12:52:00,
2013-04-17 09:02:00,53.0,53.0,-100.00,SSW,213,6.0,22.0,99,0.00,,,0.01,16.000000,,2013-04-17 13:02:00,
2013-04-17 09:22:00,56.0,55.0,-100.00,WNW,297,6.0,12.0,96,0.00,,,0.01,250.000000,,2013-04-17 13:22:00,
2013-04-17 09:32:00,56.0,55.0,-100.00,WNW,297,6.0,12.0,96,0.00,,,0.01,250.000000,,2013-04-17 13:32:00,
2013-04-17 09:42:00,56.0,55.0,-100.00,WNW,297,6.0,12.0,96,0.00,,,0.01,250.000000,,2013-04-17 13:42:00,
2013-04-17 09:52:00,56.0,55.0,-100.00,WNW,297,6.0,12.0,96,0.00,,,0.01,250.000000,,2013-04-17 13:52:00,
2013-04-17 10:02:00,56.0,55.0,-100.00,WNW,297,6.0,12.0,96,0.00,,,0.01,250.000000,,2013-04-17 14:02:00,
2013-04-17 10:32:00,60.0,55.0,-100.00,NW,322,4.0,7.0,83,0.00,,,0.01,430.000000,,2013-04-17 14:32:00,
2013-04-17 10:43:00,60.0,55.0,-100.00,NW,322,4.0,7.0,83,0.00,,,0.01,430.000000,,2013-04-17 14:43:00,
2013-04-17 10:52:00,60.0,55.0,-100.00,NW,322,4.0,7.0,83,0.00,,,0.01,430.000000,,2013-04-17 14:52:00,
2013-04-17 11:02:00,60.0,55.0,-100.00,NW,322,4.0,7.0,83,0.00,,,0.01,430.000000,,2013-04-17 15:02:00,
2013-04-17 11:03:00,60.0,56.0,-100.00,NNW,335,4.0,10.0,86,0.00,,,0.00,333.000000,,2013-04-17 15:03:00,
2013-04-17 11:22:00,60.0,56.0,-100.00,NNW,335,4.0,10.0,86,0.00,,,0.00,333.000000,,2013-04-17 15:22:00,
2013-04-17 11:33:00,60.0,56.0,-100.00,NNW,335,4.0,10.0,86,0.00,,,0.00,333.000000,,2013-04-17 15:33:00,
2013-04-17 11:43:00,60.0,56.0,-100.00,NNW,335,4.0,10.0,86,0.00,,,0.00,333.000000,,2013-04-17 15:43:00,
2013-04-17 11:53:00,60.0,56.0,-100.00,NNW,335,4.0,10.0,86,0.00,,,0.00,333.000000,,2013-04-17 15:53:00,
2013-04-17 12:23:00,60.0,55.0,-100.00,East,91,5.0,8.0,83,0.00,,,0.00,238.000000,,2013-04-17 16:23:00,
2013-04-17 12:32:00,60.0,55.0,-100.00,East,91,5.0,8.0,83,0.00,,,0.00,238.000000,,2013-04-17 16:32:00,
2013-04-17 12:42:00,60.0,55.0,-100.00,East,91,5.0,8.0,83,0.00,,,0.00,238.000000,,2013-04-17 16:42:00,
2013-04-17 12:52:00,60.0,55.0,-100.00,East,91,5.0,8.0,83,0.00,,,0.00,238.000000,,2013-04-17 16:52:00,
2013-04-17 13:02:00,60.0,55.0,-100.00,East,91,5.0,8.0,83,0.00,,,0.00,238.000000,,2013-04-17 17:02:00,
2013-04-17 13:33:00,62.0,55.0,-100.00,NNE,29,5.0,10.0,79,0.00,,,0.00,300.000000,,2013-04-17 17:33:00,
2013-04-17 13:42:00,62.0,55.0,-100.00,NNE,29,5.0,10.0,79,0.00,,,0.00,300.000000,,2013-04-17 17:42:00,
2013-04-17 13:52:00,62.0,55.0,-100.00,NNE,29,5.0,10.0,79,0.00,,,0.00,300.000000,,2013-04-17 17:52:00,
2013-04-17 14:02:00,62.0,55.0,-100.00,NNE,29,5.0,10.0,79,0.00,,,0.00,300.000000,,2013-04-17 18:02:00,
2013-04-17 14:33:00,51.0,50.0,-100.00,ESE,116,17.0,33.0,98,0.00,,,0.00,116.000000,,2013-04-17 18:33:00,
2013-04-17 14:42:00,51.0,50.0,-100.00,ESE,116,17.0,33.0,98,0.00,,,0.00,116.000000,,2013-04-17 18:42:00,
2013-04-17 14:52:00,51.0,50.0,-100.00,ESE,116,17.0,33.0,98,0.00,,,0.00,116.000000,,2013-04-17 18:52:00,
2013-04-17 15:02:00,51.0,50.0,-100.00,ESE,116,17.0,33.0,98,0.00,,,0.00,116.000000,,2013-04-17 19:02:00,
2013-04-17 15:03:00,55.0,54.0,-100.00,SE,132,13.0,30.0,97,0.00,,,0.00,406.000000,,2013-04-17 19:03:00,
2013-04-17 15:32:00,55.0,54.0,-100.00,SE,132,13.0,30.0,97,0.00,,,0.00,406.000000,,2013-04-17 19:32:00,
2013-04-17 15:42:00,55.0,54.0,-100.00,SE,132,13.0,30.0,97,0.00,,,0.00,406.000000,,2013-04-17 19:42:00,
2013-04-17 15:52:00,55.0,54.0,-100.00,SE,132,13.0,30.0,97,0.00,,,0.00,406.000000,,2013-04-17 19:52:00,
2013-04-17 16:03:00,61.0,51.0,-100.00,SSE,157,4.0,25.0,70,0.00,,,0.00,642.000000,,2013-04-17 20:03:00,
2013-04-17 16:33:00,61.0,51.0,-100.00,SSE,157,4.0,25.0,70,0.00,,,0.00,642.000000,,2013-04-17 20:33:00,
2013-04-17 16:42:00,61.0,51.0,-100.00,SSE,157,4.0,25.0,70,0.00,,,0.00,642.000000,,2013-04-17 20:42:00,
2013-04-17 16:52:00,61.0,51.0,-100.00,SSE,157,4.0,25.0,70,0.00,,,0.00,642.000000,,2013-04-17 20:52:00,
2013-04-17 17:33:00,58.0,48.0,-100.00,WSW,240,10.0,12.0,70,0.00,,,0.00,380.000000,,2013-04-17 21:33:00,
2013-04-17 17:43:00,58.0,48.0,-100.00,WSW,240,10.0,12.0,70,0.00,,,0.00,380.000000,,2013-04-17 21:43:00,
2013-04-17 17:53:00,58.0,48.0,-100.00,WSW,240,10.0,12.0,70,0.00,,,0.00,380.000000,,2013-04-17 21:53:00,
2013-04-17 18:02:00,58.0,48.0,-100.00,WSW,240,10.0,12.0,70,0.00,,,0.00,380.000000,,2013-04-17 22:02:00,
2013-04-17 18:33:00,56.0,52.0,-100.00,WSW,247,6.0,12.0,87,0.00,,,0.00,199.000000,,2013-04-17 22:33:00,
2013-04-17 18:43:00,56.0,52.0,-100.00,WSW,247,6.0,12.0,87,0.00,,,0.00,199.000000,,2013-04-17 22:43:00,
2013-04-17 18:53:00,56.0,52.0,-100.00,WSW,247,6.0,12.0,87,0.00,,,0.00,199.000000,,2013-04-17 22:53:00,
2013-04-17 19:02:00,56.0,52.0,-100.00,WSW,247,6.0,12.0,87,0.00,,,0.00,199.000000,,2013-04-17 23:02:00,
2013-04-17 19:22:00,55.0,49.0,-100.00,WSW,252,12.0,15.0,79,0.00,,,0.00,100.000000,,2013-04-17 23:22:00,
2013-04-17 19:32:00,55.0,49.0,-100.00,WSW,252,12.0,15.0,79,0.00,,,0.00,100.000000,,2013-04-17 23:32:00,
2013-04-17 19:42:00,55.0,49.0,-100.00,WSW,252,12.0,15.0,79,0.00,,,0.00,100.000000,,2013-04-17 23:42:00,
2013-04-17 19:52:00,55.0,49.0,-100.00,WSW,252,12.0,15.0,79,0.00,,,0.00,100.000000,,2013-04-17 23:52:00,
2013-04-17 20:02:00,55.0,49.0,-100.00,WSW,252,12.0,15.0,79,0.00,,,0.00,100.000000,,2013-04-18 00:02:00,
2013-04-17 20:32:00,56.0,45.0,-100.00,West,273,13.0,19.0,67,0.00,,,0.00,16.000000,,2013-04-18 00:32:00,
2013-04-17 20:43:00,56.0,45.0,-100.00,West,273,13.0,19.0,67,0.00,,,0.00,16.000000,,2013-04-18 00:43:00,
2013-04-17 20:52:00,56.0,45.0,-100.00,West,273,13.0,19.0,67,0.00,,,0.00,16.000000,,2013-04-18 00:52:00,
2013-04-17 21:02:00,56.0,45.0,-100.00,West,273,13.0,19.0,67,0.00,,,0.00,16.000000,,2013-04-18 01:02:00,
2013-04-17 21:32:00,55.0,48.0,-100.00,WNW,296,14.0,22.0,76,0.00,,,0.00,0.000000,,2013-04-18 01:32:00,
2013-04-17 21:42:00,55.0,48.0,-100.00,WNW,296,14.0,22.0,76,0.00,,,0.00,0.000000,,2013-04-18 01:42:00,
2013-04-17 21:52:00,55.0,48.0,-100.00,WNW,296,14.0,22.0,76,0.00,,,0.00,0.000000,,2013-04-18 01:52:00,
2013-04-17 22:02:00,55.0,48.0,-100.00,WNW,296,14.0,22.0,76,0.00,,,0.00,0.000000,,2013-04-18 02:02:00,
2013-04-17 22:22:00,54.0,47.0,-100.00,WNW,289,13.0,21.0,77,0.00,,,0.00,0.000000,,2013-04-18 02:22:00,
2013-04-17 22:32:00,54.0,47.0,-100.00,WNW,289,13.0,21.0,77,0.00,,,0.00,0.000000,,2013-04-18 02:32:00,
2013-04-17 22:42:00,54.0,47.0,-100.00,WNW,289,13.0,21.0,77,0.00,,,0.00,0.000000,,2013-04-18 02:42:00,
2013-04-17 22:52:00,54.0,47.0,-100.00,WNW,289,13.0,21.0,77,0.00,,,0.00,0.000000,,2013-04-18 02:52:00,
2013-04-17 23:02:00,54.0,47.0,-100.00,WNW,289,13.0,21.0,77,0.00,,,0.00,0.000000,,2013-04-18 03:02:00,
2013-04-17 23:03:00,56.0,48.0,-100.00,NW,319,11.0,16.0,75,0.00,,,0.00,0.000000,,2013-04-18 03:03:00,
2013-04-17 23:33:00,56.0,48.0,-100.00,NW,319,11.0,16.0,75,0.00,,,0.00,0.000000,,2013-04-18 03:33:00,
2013-04-17 23:43:00,56.0,48.0,-100.00,NW,319,11.0,16.0,75,0.00,,,0.00,0.000000,,2013-04-18 03:43:00,
2013-04-17 23:53:00,56.0,48.0,-100.00,NW,319,11.0,16.0,75,0.00,,,0.00,0.000000,,2013-04-18 03:53:00,